Location: Krasnoyarskiy Pitomnik
(51.1333°N, 71.6167°E)
Time: 04:13:58
(UTC+00:00)

Transit 2A - Pass Details

Date: 21 April 2024
Orbit: 594 x 958 km, 66.7° (Epoch: 21 May)

Event Time Altitude Azimuth Distance (km) Brightness Sun altitude
Rises 07:50:43 0° 321° (NW) 3,138 8.9 50.2°
Reaches altitude 10° 07:53:21 10° 334° (NNW) 2,277 8.3 50.0°
Maximum altitude 07:57:47 27° 32° (NNE) 1,503 7.4 49.9°
Drops below altitude 10° 08:02:34 10° 89° (E) 2,480 8.6 49.6°
Sets 08:05:33 0° 102° (ESE) 3,474 9.3 49.5°
